STARLINK-34043, 63823

Orbit data source: Space-Track

STARLINK-34043, 63823 is a payload satellite owned by SpaceX/Seattle (US) in LEO that was launched on Sun, 04 May 2025 UTC via an FALCON 9 launch vehicle from the Air Force Eastern Test Range (AFETR). Payload-class satellites include a variety of spacecraft equipped with specific instruments for various scientific and technological missions. These include communications satellites like Starlink; space stations such as the ISS; scientific satellites like the Hubble; Earth observation satellites from companies like Planet Labs, Umbra, and HawkEye 360; GPS; miniature CubeSats for education and research; and military/defense satellites.

Loading next visibility...
Identifier
63823, 2025-092V
Orbit
LEO
Last TLE update
15 hours ago
Origin
Manufacturer
SpaceX/Seattle
Mission
Operational spacecraft
Bus & Motor
STARLINK V2MO, Unknown motor
Mass
575 kg wet, ~530 kg dry
Launch date (UTC)
2025-05-04 (1 week ago)
Launch vehicle
FALCON 9
Launch site
Air Force Eastern Test Range (AFETR)
Object type
Payload
Rocket body
Debris
Shape & HBR
Unknown
Radar Cross Section
Medium (>0.1 m² and <1 m²)

Expand to show TLE details & history

TLE from 15 hours ago
0 STARLINK-34043
1 63823U 25092V   25132.91668981 -.01020357  00000-0 -37068-2 0  9997
2 63823  43.0012  80.0936 0001587 255.7301  81.9238 15.89827384  2518
Epoch: 2025-05-12T22:00Z
Definitive object data (Epoch: 2025-05-12T22:00:01.999Z)
Latitude
-15.15755°
Longitude
-137.62668°
Altitude
305.559 km
Speed
7.726 km/s
True Right ascension
04h 13m 13s
True Declination
-15° 03' 54"
Sunlit
Object was in daylight at TLE epoch
Visualization TLE readout
Latitude
31.88943°
Longitude
-83.24925°
Altitude
308.7 km
Speed
7.727 km/s
Apparent Right ascension
08h 45m 26s
Apparent Declination
-3° 07' 12"
Sunlit
Object is in daylight
Visualization observer readout
Local Sidereal Time
21:49:08
Azimuth
25.498° NE
Elevation
-50.478°
Doppler factor
1
Orbital elements
Apogee altitude
305.824 km
Perigee altitude
303.703 km
Semi-major axis
6,682.901 km
Eccentricity
0.0001587
Inclination
43.0012°
RAAN
80.0936°
Arg. of periapsis
255.7301°
True anomaly
81.94181°
Mean anomaly
81.9238°
Eccentric anomaly
81.9328°
Mean motion
3.97279 °/min
BSTAR
-0.0037068
Orbital period
90.62 mins
Loading maneuver chart data...
Loading SW <> Apogee altitude chart data...
Loading historical data...
Loading historical data...
Loading historical data...
Loading historical data...
Loading historical data...
Loading historical data...
Loading historical data...

STARLINK-34043 Visibility forecast

Observer location: undefined°, undefined°

Span
Click to sort rows by Start time (UTC) header in descending order
Start Az.
Max El. time (UTC)
Max El. Az.
Max El.
End time (UTC)
End Az.
4 mins2025-05-13 23:58:23.754Z226.255° WSW2025-05-14 00:00:23.754Z164.937° S34.452°2025-05-14 00:02:23.754Z85.852° E
4 mins2025-05-14 03:09:23.754Z302.115° NW2025-05-14 03:10:23.754Z331.835° NNW32.579°2025-05-14 03:13:23.754Z84.61° E
|